Location: Moscow
(55.7500°N, 37.5830°E)
Time: 04:19:12
(UTC+03:00)

Kosmos-337 - Pass Details

Date: 12 July 2022
Orbit: 1467 x 1552 km, 74.0° (Epoch: 13 August)

Event Time Altitude Azimuth Distance (km) Brightness Sun altitude
Rises 01:16:12 0° 333° (NNW) 4,736 ? -11.8°
Reaches altitude 10° 01:19:23 10° 326° (NNW) 3,747 ? -11.7°
Maximum altitude 01:27:40 41° 262° (W) 2,113 ? -11.4°
Enters shadow 01:34:57 13° 199° (SSW) 3,422 ? -11.2°
